Regional Weather Roundup
Issued by NWS

Home | Current Version | Previous Version | Graphics & Text | Print | Product List | Glossary On
Versions: 1 2 3 4 5 6 7 8 9 10 11 12 13 14 15 16 17 18 19 20 21 22 23 24 25 26 27 28 29 30 31 32 33 34 35 36 37 38 39 40 41 42 43 44 45 46 47 48 49 50
000
ASUS43 KMPX 170101
RWRMN
WEATHER ROUNDUP FOR MINNESOTA
NATIONAL WEATHER SERVICE TWIN CITIES/CHANHASSEN MN
800 PM CDT TUE SEP 16 2014


NOTE: "FAIR" INDICATES FEW OR NO CLOUDS BELOW 12,000 FEET WITH NO
SIGNIFICANT WEATHER AND/OR OBSTRUCTIONS TO VISIBILITY. N/A MEANS
CURRENT SKY AND/OR WEATHER CONDITIONS ARE NOT AVAILABLE.

MNZ060>063-068>070-170200-
   Twin Cities Metro

CITY           SKY/WX    TMP DP  RH WIND       PRES   REMARKS
TWIN CITIES    PTCLDY    62  44  51 SE5       30.02S
ST PAUL        CLEAR     55  48  77 SE5       30.03S
CRYSTAL        MOCLDY    56  47  71 CALM      30.01F
LAKEVILLE      MOCLDY    55  48  76 CALM      30.03R
EDEN PRAIRIE   PTCLDY    61  45  55 E5        30.01S
SOUTH ST PAUL  CLEAR     58  48  69 CALM      30.02S
LAKE ELMO      FAIR      54  46  76 CALM      30.04S
$$
MNZ001>005-007-008-013>017-022>024-027-028-170200-
   Northwest Minnesota

CITY           SKY/WX    TMP DP  RH WIND       PRES   REMARKS
BEMIDJI        CLEAR     59  44  56 SW3       29.97S
HALLOCK        CLEAR     61  48  63 E5        29.90S
ROSEAU         CLOUDY    57  52  82 CALM      29.92S
WARROAD        CLOUDY    55  52  88 SE3       29.93S
THIEF RVR FALL CLEAR     57  43  58 S7        29.94R
CROOKSTON      CLEAR     59  45  58 S7        29.94S
FOSSTON        CLEAR     54  41  62 S6        29.97S
DETROIT LAKES  CLEAR     59  45  58 SE5       29.98F
MOORHEAD       CLEAR     63  48  59 SE5       29.95S
PARK RAPIDS    CLEAR     58  41  53 CALM      29.98S
$$
MNZ006-009>011-018-025>026-170200-
   North Central Minnesota

CITY           SKY/WX    TMP DP  RH WIND       PRES   REMARKS
BAUDETTE       CLOUDY    55  50  83 S3        29.93F
FLAG ISLAND    CLOUDY    57  52  82 S5        29.91F
INTL FALLS     CLOUDY    53  51  93 CALM      29.94F
WASKISH        CLOUDY    57  52  82 CALM      29.94S
LONGVILLE      CLEAR     48  46  93 CALM      29.98S
GRAND RAPIDS   CLEAR     57  43  58 S6        29.98S
CRANE LAKE     CLOUDY    52  52 100 CALM      29.97F
ORR            CLOUDY    54  48  82 CALM      29.94S
COOK           CLOUDY    55  50  82 CALM      29.97S
WALKER         FAIR      55  43  63 CALM      29.98R
$$
MNZ012-019>021-037-170200-
   Northeast Minnesota

CITY           SKY/WX    TMP DP  RH WIND       PRES   REMARKS
DULUTH         PTCLDY    58  42  55 SW8       29.99R
ELY            CLOUDY    54  48  82 CALM      29.97S
HIBBING        CLEAR     56  46  69 SW5       29.97S
EVELETH        CLEAR     57  43  58 SW5       29.98S
DULUTH HARBOR  PTCLDY    61  48  63 SW9       29.99R
TWO HARBORS    CLEAR     55  45  67 W5        29.96S
SILVER BAY     CLEAR     52  50  93 CALM      29.95S
GRAND MARAIS     N/A     55  47  74 NE5       29.97R
G MARAIS ARPRT PTCLDY    50  45  81 CALM      29.99R
$$
MNZ029>031-032-039>041-046>048-054>057-064-170200-
   West Central Minnesota

CITY           SKY/WX    TMP DP  RH WIND       PRES   REMARKS
FERGUS FALLS   PTCLDY    61  43  51 SE8       29.96S
WHEATON        CLOUDY    61  50  67 SE7       29.96F
MORRIS         CLOUDY    63  50  63 SE6       29.96F
ALEXANDRIA     CLOUDY    58  48  69 S6        29.99F
ELBOW LAKE     FAIR      59  48  65 SE6       29.96F
WADENA         CLEAR     54  43  66 CALM      29.99S
GLENWOOD       PTCLDY    57  48  72 SE3       30.00F
APPLETON       CLOUDY    63  50  63 SE3       29.96F
BENSON         CLOUDY    63  48  59 S6        29.98F
ORTONVILLE     CLOUDY    63  52  67 SE6       29.95F
MADISON        CLOUDY    64  54  68 SE6       29.97S
WILLMAR        MOCLDY    61  50  67 SE3       30.01S
$$
MNZ033>034-036-042>043-049>051-058-059-170200-
   Central Minnesota

CITY           SKY/WX    TMP DP  RH WIND       PRES   REMARKS
ST CLOUD       MOCLDY    57  48  72 SE5       30.00S
SAUK CENTRE    CLOUDY    57  47  68 E3        29.99F
PAYNESVILLE    CLOUDY    58  48  70 E3        30.00S
AITKIN         CLEAR     50  45  81 CALM      29.99S
PINE RIVER     CLEAR     54  46  76 CALM      30.02S
BRAINERD       CLEAR     51  45  79 CALM      30.00S
STAPLES        CLEAR     54  45  71 CALM      30.00S
LONG PRAIRIE   CLOUDY    55  46  71 CALM      30.00F
LITTLE FALLS   MOCLDY    54  46  76 CALM      30.01S
LITCHFIELD     CLOUDY    61  48  63 CALM      30.01S
BUFFALO        MOCLDY    58  47  66 CALM      30.02S
MAPLE LAKE     MOCLDY    56  52  86 CALM      30.02S
$$
MNZ037-044-045-052-053-170200-
   East Central Minnesota

CITY           SKY/WX    TMP DP  RH WIND       PRES   REMARKS
PRINCETON      CLEAR     55  46  71 E1        30.01F
MORA           CLEAR     50  45  81 CALM      30.03S
CAMBRIDGE      CLEAR     57  46  67 CALM      30.00S
RUSH CITY      MOCLDY    50  46  86 CALM      30.02S
MOOSE LAKE     CLEAR     50  46  87 CALM      29.99S
HINCKLEY       FAIR      50  46  87 CALM      30.01S
CLOQUET        CLEAR     57  41  54 SW6       29.99F
MCGREGOR       CLEAR     55  45  67 S3        30.00F
$$
MNZ071>073-080-081-089-090-097-098-170200-
   Southwest Minnesota

CITY           SKY/WX    TMP DP  RH WIND       PRES   REMARKS
MONTEVIDEO     CLOUDY    63  48  59 S5        29.99S
GRANITE FALLS  CLOUDY    63  51  65 S5        30.00S
CANBY          CLOUDY    63  50  61 S5        29.98F
MARSHALL       CLOUDY    64  48  55 S3        29.99R
REDWOOD FALLS  CLOUDY    62  50  64 S5        29.99S
OLIVIA         CLOUDY    63  46  55 CALM      29.99S
PIPESTONE      PTCLDY    57  48  72 S6        29.99F
WINDOM         MOCLDY    59  48  67 SE5       30.01S
WORTHINGTON    CLOUDY    61  46  59 S8        30.01S
JACKSON        CLOUDY    59  46  63 S6        30.02S
TRACY          CLOUDY    64  50  61 CALM      30.00R
SLAYTON        CLOUDY    60  48  63 CALM      30.01S
$$
MNZ065>067-074>077-082>085-091>093-170200-
   South Central Minnesota

CITY           SKY/WX    TMP DP  RH WIND       PRES   REMARKS
MANKATO        CLOUDY    61  43  51 S6        30.02S
NEW ULM        MOCLDY    59  48  67 SE3       30.00F
ST JAMES       PTCLDY    61  48  63 SE5       30.02S
FAIRMONT       MOCLDY    57  45  62 S7        30.02S
GLENCOE        CLOUDY    61  45  56 CALM      30.00S
FARIBAULT      CLEAR     54  46  76 CALM      30.03S
OWATONNA       CLEAR     55  46  71 SE5       30.04S
WASECA         CLEAR     54  43  66 SE6       30.05S
ALBERT LEA     CLEAR     57  46  67 CALM      30.04F
$$
MNZ078>079-086>088-094>096-170200-
   Southeast Minnesota

CITY           SKY/WX    TMP DP  RH WIND       PRES   REMARKS
ROCHESTER      CLEAR     55  45  68 S5        30.06S
RED WING       CLEAR     54  48  82 CALM      30.03S
STANTON        PTCLDY    55  47  74 CALM      30.02S
DODGE CENTER   PTCLDY    54  46  76 S5        30.05S
WINONA         CLEAR     55  50  82 CALM      30.06S
AUSTIN         CLEAR     54  46  76 CALM      30.05S
PRESTON        CLEAR     56  49  75 CALM      30.06F
$$
ABBREVIATIONS USED IN REMARKS
   TC - TEMPERATURES IN CELSIUS
  WCI - WIND CHILL INDEX
   HX - HEAT INDEX
  VSB - VISIBILITY
$$


USA.gov is the U.S. government's official web portal to all federal, state and local government web resources and services.